Flag for U.S.A. Weather past 2 weeks in Gloucester, Massachusetts, U.S.A.

Now
28 °F

Overcast.


Feels Like: 19 °F
Forecast: 33 / 37 °F
Wind: 10 mph from North

Location: Beverly Municipal Airport

Current Time: Dec 21, 2014 at 8:18:04 AM

Latest Report: Dec 21, 2014 at 7:53 AM


Visibility: 9 mi

Pressure: 30.32 "Hg

Humidity: 78%

Dew point: 22 °F

Location of GloucesterLocation

Historic Weather in Gloucester — Graph

°F

Gloucester temperature yesterday

Maximum temperature yesterday: 35 °F (at 8:53 PM)
Minimum temperature yesterday: 26 °F (at 12:53 AM)
Average temperature yesterday: 31 °F

Past Weeks' High & Low Weather Summary

 TemperatureHumidityPressure
High49 °F (Dec 9, 10:53 PM)97% (Dec 9, 6:53 AM)30.77 "Hg (Dec 9, 6:53 AM)
Low17 °F (Dec 8, 3:53 AM)24% (Dec 7, 4:53 PM)29.39 "Hg (Dec 10, 11:53 PM)
Average35 °F78%29.98 "Hg
* Reported Dec 6 6:53 AM — Dec 21 6:53 AM, Gloucester, Weather by CustomWeather, © 2014

Note: Actual official high and low records may vary slightly from our data, if they occured in-between our weather recording intervals... More about our weather records

Advertising

Gloucester weather history for previous 24 hours

 ConditionsComfort  
Time TempWeatherWind HumidityBarometerVisibility
6:53 AM
Dec 21
28 °FOvercast.7 mph81%30.31 "Hg10 mi
5:53 AM29 °FOvercast.7 mph79%30.29 "Hg10 mi
4:53 AM30 °FOvercast.6 mph79%30.28 "Hg10 mi
3:53 AM31 °FLow clouds.8 mph82%30.28 "Hg10 mi
2:53 AM32 °FLow clouds.9 mph85%30.28 "Hg10 mi
1:53 AM34 °FMostly cloudy.9 mph82%30.27 "Hg10 mi
12:53 AM34 °FMostly cloudy.9 mph79%30.27 "Hg10 mi
11:53 PM
Dec 20
35 °FMostly cloudy.8 mph72%30.27 "Hg10 mi
10:53 PM35 °FOvercast.7 mph67%30.28 "Hg10 mi
9:53 PM35 °FOvercast.8 mph70%30.28 "Hg10 mi
8:53 PM35 °FOvercast.9 mph70%30.29 "Hg10 mi
7:53 PM34 °FMostly cloudy.8 mph76%30.30 "Hg10 mi
6:53 PM34 °FOvercast.7 mph76%30.28 "Hg10 mi
5:53 PM33 °FLight snow. Overcast.9 mph82%30.27 "Hg2 mi
4:53 PM32 °FLight snow. Ice fog.7 mph85%30.26 "Hg2 mi
3:53 PM32 °FLight snow. Mostly cloudy.7 mph82%30.26 "Hg2 mi
2:53 PM33 °FOvercast.12 mph72%30.25 "Hg10 mi
1:53 PM34 °FOvercast.8 mph67%30.26 "Hg10 mi
12:53 PM34 °FOvercast.8 mph64%30.25 "Hg10 mi
11:53 AM33 °FBroken clouds.9 mph63%30.25 "Hg10 mi
10:53 AM31 °FMore clouds than sun.10 mph67%30.27 "Hg10 mi
9:53 AM30 °FMostly cloudy.9 mph69%30.28 "Hg10 mi
8:53 AM28 °FOvercast.9 mph72%30.28 "Hg10 mi
Weather by CustomWeather, © 2014

See weather overviewHow to use our weather pages